Location: *
(2.5500°S, 65.9667°W)
Time: 06:19:37
(UTC+00:00)

Explorer 7 - Pass Details

Date: 26 April 2024
Orbit: 467 x 625 km, 50.3° (Epoch: 26 May)

Event Time Altitude Azimuth Distance (km) Brightness Sun altitude
Rises 09:05:30 0° 195° (SSW) 2,605 - -19.1°
Exits shadow 09:07:37 - 183° (S) 1,865 9.3 -18.6°
Reaches altitude 10° 09:08:00 10° 180° (S) 1,747 9.2 -18.5°
Maximum altitude 09:11:10 23° 127° (SE) 1,170 8.9 -17.7°
Drops below altitude 10° 09:14:28 10° 74° (ENE) 1,822 10.8 -16.9°
Sets 09:17:07 0° 59° (ENE) 2,747 11.9 -16.3°
